Date String (YYYY-MM-DD hh:mm:ss) UTC,Instrument flags,absolute air pressure of the measurement (hPa),sample flow rate (lpm),inlet stack bypass flow (lpm),air temperature of the measurement (°C),ambient temperature measured by the external sensor (°C),aerosol sample conditioner tube jacket temperature (°C),OPC LED temperature (°C),internal box temperature (°C),relative humidity of the measurement (%),span deviation,mass concentration of particles derived from Lorenz-Mie calculation of OPC scattering (μg/m³),mass concentration of particles derived from Lorenz-Mie calculation of OPC scattering (μg/m³),mass concentration of particles derived from Lorenz-Mie calculation of OPC scattering (μg/m³)
DateTimeUTC,F1_M11,P_M11,Q1_M11,Q2_M11,T1_M11,T2_M11,T3_M11,T4_M11,T5_M11,U1_M11,ZSPAN_M11,X0_M11,X2_M11,X1_M11
2024-03-24 15:00:00,SystemResetWarning,0809.2,4.99,000.00,020.7,020.1,000.0,029.2,022.6,26.0,0001.4,0039.09,0018.90,0016.29
2024-03-24 15:01:00,SystemResetWarning,0809.2,4.99,000.00,020.7,020.1,000.0,029.2,022.6,25.6,0001.2,0039.71,0019.00,0016.33
2024-03-24 15:02:00,SystemResetWarning,0809.2,5.01,000.00,020.7,020.1,000.0,029.2,022.6,25.7,0001.2,0038.45,0019.04,0016.35
2024-03-24 15:03:00,SystemResetWarning,0809.2,5.01,000.00,020.7,020.1,000.0,029.2,022.6,26.1,0001.2,0039.15,0019.14,0016.40
2024-03-24 15:04:00,SystemResetWarning,0809.1,5.00,000.00,020.7,020.1,000.0,029.2,022.6,26.0,0001.3,0037.81,0019.18,0016.48
2024-03-24 15:05:00,SystemResetWarning,0809.1,4.98,000.00,020.7,020.1,000.0,029.2,022.6,26.1,0001.2,0038.33,0019.28,0016.53
2024-03-24 15:06:00,SystemResetWarning,0809.1,4.99,000.00,020.8,020.1,000.0,029.3,022.6,26.0,0001.1,0039.27,0019.39,0016.59
2024-03-24 15:07:00,SystemResetWarning,0809.1,5.01,000.00,020.8,020.2,000.0,029.3,022.6,25.9,0001.1,0038.71,0019.45,0016.64
2024-03-24 15:08:00,SystemResetWarning,0809.1,5.01,000.00,020.8,020.2,000.0,029.3,022.6,25.8,0000.9,0038.15,0019.46,0016.66
2024-03-24 15:09:00,SystemResetWarning,0809.2,5.00,000.00,020.8,020.2,000.0,029.3,022.6,25.9,0000.8,0036.94,0019.38,0016.65
2024-03-24 15:10:00,SystemResetWarning,0809.2,5.00,000.00,020.8,020.2,000.0,029.3,022.6,25.9,0000.6,0037.45,0019.42,0016.66
2024-03-24 15:11:00,SystemResetWarning,0809.2,4.99,000.00,020.8,020.2,000.0,029.3,022.6,25.8,0000.6,0038.48,0019.44,0016.67
2024-03-24 15:12:00,SystemResetWarning,0809.3,4.99,000.00,020.8,020.1,000.0,029.3,022.6,26.0,0000.8,0039.13,0019.44,0016.68
2024-03-24 15:13:00,SystemResetWarning,0809.2,5.00,000.00,020.8,020.1,000.0,029.3,022.6,25.9,0001.0,0041.27,0019.50,0016.70
2024-03-24 15:14:00,SystemResetWarning,0809.3,5.01,000.00,020.8,020.1,000.0,029.3,022.6,25.7,0001.1,0040.34,0019.46,0016.72
2024-03-24 15:15:00,SystemResetWarning,0809.2,5.00,000.00,020.8,020.1,000.0,029.3,022.6,25.6,0001.4,0040.70,0019.49,0016.74
2024-03-24 15:16:00,SystemResetWarning,0809.3,4.99,000.00,020.8,020.1,000.0,029.3,022.6,25.4,0001.6,0043.05,0019.56,0016.77
2024-03-24 15:17:00,SystemResetWarning,0809.2,4.99,000.00,020.8,020.1,000.0,029.3,022.6,25.5,0001.3,0043.57,0019.52,0016.76
2024-03-24 15:18:00,SystemResetWarning,0809.3,5.00,000.00,020.8,020.1,000.0,029.3,022.6,25.6,0001.3,0043.96,0019.47,0016.76
2024-03-24 15:19:00,SystemResetWarning,0809.3,5.00,000.00,020.8,020.1,000.0,029.3,022.6,25.6,0001.4,0044.91,0019.49,0016.81
2024-03-24 15:20:00,SystemResetWarning,0809.2,4.99,000.00,020.8,020.2,000.0,029.3,022.6,25.5,0001.6,0045.85,0019.67,0016.90
2024-03-24 15:21:00,SystemResetWarning,0809.2,5.01,000.00,020.8,020.2,000.0,029.3,022.6,25.6,0001.8,0044.55,0019.79,0017.01
2024-03-24 15:22:00,SystemResetWarning,0809.2,5.00,000.00,020.8,020.2,000.0,029.3,022.6,25.3,0001.8,0044.57,0019.92,0017.08
2024-03-24 15:23:00,SystemResetWarning,0809.2,5.00,000.00,020.8,020.2,000.0,029.3,022.6,25.2,0001.7,0044.40,0019.96,0017.14
2024-03-24 15:24:00,SystemResetWarning,0809.3,5.01,000.00,020.8,020.2,000.0,029.3,022.7,25.1,0001.8,0043.75,0019.99,0017.20
2024-03-24 15:25:00,SystemResetWarning,0809.3,5.00,000.00,020.8,020.2,000.0,029.3,022.7,24.9,0001.7,0044.86,0019.97,0017.19
2024-03-24 15:26:00,SystemResetWarning,0809.3,4.99,000.00,020.8,020.2,000.0,029.3,022.7,25.1,0001.3,0045.33,0020.02,0017.23
2024-03-24 15:27:00,SystemResetWarning,0809.3,4.99,000.00,020.8,020.2,000.0,029.3,022.7,25.3,0001.0,0042.96,0019.98,0017.28
2024-03-24 15:28:00,SystemResetWarning,0809.3,5.02,000.00,020.8,020.2,000.0,029.3,022.7,25.3,0001.2,0041.70,0020.12,0017.39
2024-03-24 15:29:00,SystemResetWarning,0809.3,5.00,000.00,020.8,020.2,000.0,029.4,022.7,25.5,0001.3,0042.96,0020.24,0017.48
2024-03-24 15:30:00,SystemResetWarning,0809.3,5.00,000.00,020.9,020.2,000.0,029.4,022.7,25.5,0001.3,0042.44,0020.31,0017.56
2024-03-24 15:31:00,SystemResetWarning,0809.2,4.99,000.00,020.9,020.2,000.0,029.4,022.7,25.6,0001.1,0041.05,0020.34,0017.61
2024-03-24 15:32:00,SystemResetWarning,0809.2,5.00,000.00,020.9,020.2,000.0,029.4,022.7,25.7,0000.8,0042.13,0020.34,0017.64
2024-03-24 15:33:00,SystemResetWarning,0809.2,5.00,000.00,020.9,020.2,000.0,029.4,022.7,25.5,0000.5,0041.59,0020.35,0017.68
2024-03-24 15:34:00,SystemResetWarning,0809.2,5.00,000.00,020.9,020.2,000.0,029.4,022.7,25.3,0000.5,0040.88,0020.43,0017.73
2024-03-24 15:35:00,SystemResetWarning,0809.2,5.00,000.00,020.9,020.2,000.0,029.4,022.7,25.4,0000.3,0040.09,0020.52,0017.78
2024-03-24 15:36:00,SystemResetWarning,0809.2,5.01,000.00,020.9,020.2,000.0,029.4,022.7,25.3,0000.1,0039.17,0020.62,0017.86
2024-03-24 15:37:00,SystemResetWarning,0809.3,5.00,000.00,020.9,020.1,000.0,029.4,022.7,25.3,0000.4,0039.58,0020.68,0017.90
2024-03-24 15:38:00,SystemResetWarning,0809.2,5.00,000.00,020.9,020.1,000.0,029.4,022.7,25.3,0000.7,0038.89,0020.73,0017.91
2024-03-24 15:39:00,SystemResetWarning,0809.2,5.00,000.00,020.9,020.2,000.0,029.4,022.7,25.3,0001.0,0039.08,0020.67,0017.91
2024-03-24 15:40:00,SystemResetWarning,0809.2,4.99,000.00,020.9,020.2,000.0,029.4,022.7,25.4,0001.1,0039.10,0020.63,0017.89
2024-03-24 15:41:00,SystemResetWarning,0809.2,4.99,000.00,020.9,020.1,000.0,029.4,022.7,25.4,0001.4,0039.05,0020.61,0017.90
2024-03-24 15:42:00,SystemResetWarning,0809.2,5.01,000.00,020.9,020.1,000.0,029.4,022.7,25.5,0001.5,0041.19,0020.55,0017.89
2024-03-24 15:43:00,SystemResetWarning,0809.2,5.01,000.00,020.9,020.2,000.0,029.4,022.7,25.6,0001.6,0041.09,0020.47,0017.85
2024-03-24 15:44:00,SystemResetWarning,0809.2,5.00,000.00,020.9,020.2,000.0,029.4,022.7,25.6,0001.7,0042.00,0020.42,0017.84
2024-03-24 15:45:00,SystemResetWarning,0809.2,5.00,000.00,020.9,020.2,000.0,029.4,022.7,25.8,0001.8,0043.67,0020.47,0017.85
2024-03-24 15:46:00,SystemResetWarning,0809.2,4.99,000.00,020.9,020.2,000.0,029.4,022.7,25.6,0001.8,0044.88,0020.46,0017.86
2024-03-24 15:47:00,SystemResetWarning,0809.2,5.00,000.00,020.9,020.2,000.0,029.4,022.7,25.5,0001.9,0045.94,0020.48,0017.85
2024-03-24 15:48:00,SystemResetWarning,0809.2,5.00,000.00,020.9,020.2,000.0,029.4,022.7,25.6,0002.0,0044.98,0020.46,0017.83
2024-03-24 15:49:00,SystemResetWarning,0809.2,5.00,000.00,020.9,020.2,000.0,029.4,022.7,25.4,0001.8,0046.03,0020.44,0017.81
2024-03-24 15:50:00,SystemResetWarning,0809.2,5.00,000.00,020.9,020.2,000.0,029.4,022.7,25.5,0001.5,0045.53,0020.45,0017.78
2024-03-24 15:51:00,SystemResetWarning,0809.1,5.00,000.00,020.9,020.2,000.0,029.4,022.7,25.4,0001.5,0045.26,0020.47,0017.80
2024-03-24 15:52:00,SystemResetWarning,0809.1,5.01,000.00,020.9,020.2,000.0,029.4,022.7,25.3,0001.3,0045.81,0020.52,0017.79
2024-03-24 15:53:00,SystemResetWarning,0809.1,5.01,000.00,020.9,020.2,000.0,029.4,022.7,25.3,0001.3,0045.80,0020.56,0017.76
2024-03-24 15:54:00,SystemResetWarning,0809.1,5.01,000.00,020.9,020.3,000.0,029.4,022.7,25.1,0001.4,0047.02,0020.59,0017.75
2024-03-24 15:55:00,SystemResetWarning,0809.1,5.00,000.00,020.9,020.3,000.0,029.4,022.7,25.1,0001.6,0046.26,0020.51,0017.70
2024-03-24 15:56:00,SystemResetWarning,0809.1,4.99,000.00,020.9,020.3,000.0,029.4,022.7,25.3,0001.6,0044.97,0020.43,0017.66
2024-03-24 15:57:00,SystemResetWarning,0809.0,4.99,000.00,020.9,020.3,000.0,029.4,022.8,25.2,0001.5,0043.28,0020.33,0017.57
2024-03-24 15:58:00,SystemResetWarning,0809.1,5.00,000.00,020.9,020.3,000.0,029.4,022.8,24.8,0001.4,0042.78,0020.24,0017.48
2024-03-24 15:59:00,SystemResetWarning,0809.0,5.00,000.00,020.9,020.3,000.0,029.4,022.8,24.6,0001.4,0042.82,0020.12,0017.39
